• en Belgique
  • Liste des pays
  • À 7 jours
  • Température de l'eau
  • Carte satellitaire
  • Carte météo
  • Widgets météo
  • user-avatar
    Se connecter

    Météo par heure à Mons

    Ce jour, 19 Août, Dimanche

    Heure Température Précipitation Vent Pression Humidité
    00:00 +15°C° 0 mm 1 m/s 764 mmHg 91%
    01:00 +15°C° 0 mm 2 m/s 764 mmHg 92%
    02:00 +15°C° 0 mm 2 m/s 764 mmHg 93%
    03:00 +14°C° 0 mm 2 m/s 764 mmHg 93%
    04:00 +15°C° 0 mm 2 m/s 764 mmHg 92%
    05:00 +15°C° 0 mm 2 m/s 764 mmHg 91%
    06:00 +16°C° 0 mm 3 m/s 764 mmHg 90%
    07:00 +17°C° 0 mm 3 m/s 764 mmHg 84%
    08:00 +19°C° 0 mm 3 m/s 764 mmHg 77%
    09:00 +21°C° 0 mm 4 m/s 764 mmHg 71%
    10:00 +22°C° 0 mm 4 m/s 764 mmHg 67%
    11:00 +23°C° 0 mm 4 m/s 763 mmHg 64%
    12:00 +25°C° 0 mm 4 m/s 763 mmHg 60%
    13:00 +26°C° 0 mm 4 m/s 763 mmHg 60%
    14:00 +26°C° 0 mm 4 m/s 762 mmHg 59%
    15:00 +27°C° 0 mm 4 m/s 762 mmHg 59%
    16:00 +26°C° 0 mm 4 m/s 762 mmHg 63%
    17:00 +25°C° 0 mm 4 m/s 762 mmHg 66%
    18:00 +24°C° 0 mm 3 m/s 762 mmHg 70%
    19:00 +22°C° 0 mm 3 m/s 762 mmHg 75%
    20:00 +21°C° 0 mm 3 m/s 762 mmHg 79%
    21:00 +19°C° 0 mm 3 m/s 762 mmHg 84%
    22:00 +19°C° 0 mm 3 m/s 762 mmHg 86%
    23:00 +19°C° 0 mm 3 m/s 762 mmHg 88%

    Demain, 20 Août, Lundi

    Heure Température Précipitation Vent Pression Humidité
    00:00 +19°C° 0 mm 3 m/s 762 mmHg 89%
    01:00 +19°C° 0 mm 3 m/s 762 mmHg 90%
    02:00 +19°C° 0 mm 3 m/s 762 mmHg 91%
    03:00 +19°C° 0 mm 3 m/s 762 mmHg 92%
    04:00 +19°C° 0 mm 3 m/s 762 mmHg 92%
    05:00 +19°C° 0 mm 2 m/s 762 mmHg 92%
    06:00 +19°C° 0 mm 2 m/s 762 mmHg 91%
    07:00 +20°C° 0 mm 2 m/s 763 mmHg 88%
    08:00 +21°C° 0 mm 2 m/s 763 mmHg 84%
    09:00 +21°C° 0 mm 2 m/s 763 mmHg 81%
    10:00 +23°C° 0,1 mm 2 m/s 763 mmHg 79%
    11:00 +23°C° 0,1 mm 2 m/s 763 mmHg 76%
    12:00 +24°C° 0,1 mm 2 m/s 763 mmHg 74%
    13:00 +24°C° 0,1 mm 2 m/s 763 mmHg 74%
    14:00 +24°C° 0,1 mm 2 m/s 763 mmHg 73%
    15:00 +24°C° 0,1 mm 2 m/s 763 mmHg 73%
    16:00 +23°C° 0,1 mm 2 m/s 763 mmHg 76%
    17:00 +23°C° 0,1 mm 1 m/s 763 mmHg 79%
    18:00 +22°C° 0,1 mm 1 m/s 763 mmHg 82%
    19:00 +22°C° 0,1 mm 1 m/s 763 mmHg 82%
    20:00 +22°C° 0,1 mm 1 m/s 763 mmHg 83%
    21:00 +21°C° 0,1 mm 1 m/s 764 mmHg 84%
    22:00 +21°C° 0,1 mm 1 m/s 764 mmHg 84%
    23:00 +21°C° 0,1 mm 1 m/s 763 mmHg 84%

    Après-demain, 21 Août, Mardi

    Heure Température Précipitation Vent Pression Humidité
    00:00 +19°C° 0,1 mm 0 m/s 763 mmHg 84%
    01:00 +18°C° 0,1 mm 0 m/s 763 mmHg 85%
    02:00 +18°C° 0,1 mm 0 m/s 763 mmHg 85%
    03:00 +18°C° 0,1 mm 0 m/s 763 mmHg 86%
    04:00 +18°C° 0 mm 0 m/s 763 mmHg 85%
    05:00 +18°C° 0 mm 0 m/s 763 mmHg 85%
    06:00 +21°C° 0 mm 1 m/s 763 mmHg 85%
    07:00 +21°C° 0,1 mm 1 m/s 763 mmHg 82%
    08:00 +22°C° 0,1 mm 1 m/s 763 mmHg 79%
    09:00 +23°C° 0,1 mm 1 m/s 763 mmHg 76%
    10:00 +24°C° 0,1 mm 1 m/s 763 mmHg 72%
    11:00 +25°C° 0,1 mm 1 m/s 763 mmHg 67%
    12:00 +26°C° 0,1 mm 1 m/s 763 mmHg 62%
    13:00 +26°C° 0 mm 1 m/s 762 mmHg 59%
    14:00 +27°C° 0 mm 1 m/s 762 mmHg 55%
    15:00 +28°C° 0 mm 1 m/s 762 mmHg 52%
    16:00 +27°C° 0 mm 1 m/s 762 mmHg 56%
    17:00 +24°C° 0 mm 0 m/s 761 mmHg 61%
    18:00 +23°C° 0 mm 0 m/s 761 mmHg 65%
    19:00 +24°C° 0 mm 1 m/s 761 mmHg 67%
    20:00 +23°C° 0 mm 1 m/s 762 mmHg 69%
    21:00 +22°C° 0 mm 1 m/s 762 mmHg 72%
    22:00 +22°C° 0 mm 1 m/s 762 mmHg 75%
    23:00 +21°C° 0 mm 1 m/s 762 mmHg 78%

    22 Août, Mercredi

    Heure Température Précipitation Vent Pression Humidité
    00:00 +20°C° 0 mm 1 m/s 762 mmHg 82%
    01:00 +20°C° 0 mm 1 m/s 761 mmHg 83%
    02:00 +18°C° 0 mm 0 m/s 761 mmHg 84%
    03:00 +18°C° 0 mm 0 m/s 761 mmHg 85%
    04:00 +20°C° 0 mm 1 m/s 761 mmHg 85%
    05:00 +20°C° 0 mm 1 m/s 761 mmHg 84%
    06:00 +20°C° 0 mm 1 m/s 761 mmHg 84%
    07:00 +22°C° 0 mm 1 m/s 761 mmHg 77%
    08:00 +24°C° 0 mm 1 m/s 761 mmHg 71%
    09:00 +25°C° 0 mm 2 m/s 761 mmHg 65%
    10:00 +26°C° 0 mm 2 m/s 761 mmHg 61%
    11:00 +27°C° 0 mm 2 m/s 761 mmHg 57%
    12:00 +28°C° 0 mm 2 m/s 761 mmHg 52%
    13:00 +29°C° 0 mm 3 m/s 760 mmHg 52%
    14:00 +29°C° 0 mm 3 m/s 760 mmHg 51%
    15:00 +29°C° 0 mm 3 m/s 760 mmHg 50%
    16:00 +28°C° 0 mm 3 m/s 760 mmHg 56%
    17:00 +27°C° 0 mm 2 m/s 760 mmHg 61%
    18:00 +25°C° 0 mm 2 m/s 760 mmHg 67%
    19:00 +24°C° 0 mm 2 m/s 760 mmHg 72%
    20:00 +21°C° 0 mm 2 m/s 761 mmHg 77%
    21:00 +21°C° 0 mm 1 m/s 761 mmHg 82%
    22:00 +20°C° 0 mm 1 m/s 761 mmHg 84%
    23:00 +20°C° 0 mm 1 m/s 760 mmHg 86%

    23 Août, Jeudi

    Heure Température Précipitation Vent Pression Humidité
    00:00 +17°C° 0 mm 0 m/s 760 mmHg 88%
    01:00 +19°C° 0 mm 1 m/s 760 mmHg 89%
    02:00 +19°C° 0 mm 1 m/s 760 mmHg 89%
    03:00 +18°C° 0 mm 1 m/s 760 mmHg 90%
    04:00 +19°C° 0 mm 1 m/s 760 mmHg 90%
    05:00 +19°C° 0 mm 1 m/s 759 mmHg 89%
    06:00 +19°C° 0 mm 1 m/s 759 mmHg 88%
    07:00 +20°C° 0 mm 2 m/s 759 mmHg 80%
    08:00 +23°C° 0 mm 2 m/s 759 mmHg 72%
    09:00 +25°C° 0 mm 3 m/s 759 mmHg 65%
    10:00 +26°C° 0 mm 3 m/s 758 mmHg 61%
    11:00 +27°C° 0 mm 4 m/s 758 mmHg 58%
    12:00 +28°C° 0 mm 4 m/s 758 mmHg 54%
    13:00 +28°C° 0 mm 4 m/s 757 mmHg 54%
    14:00 +28°C° 0 mm 5 m/s 757 mmHg 54%
    15:00 +28°C° 0 mm 5 m/s 757 mmHg 54%
    16:00 +27°C° 0 mm 4 m/s 757 mmHg 60%
    17:00 +26°C° 0 mm 4 m/s 756 mmHg 65%
    18:00 +25°C° 0 mm 4 m/s 756 mmHg 71%
    19:00 +22°C° 0 mm 4 m/s 756 mmHg 77%
    20:00 +21°C° 0 mm 3 m/s 756 mmHg 83%
    21:00 +19°C° 0 mm 3 m/s 757 mmHg 88%
    22:00 +19°C° 0 mm 3 m/s 756 mmHg 90%
    23:00 +18°C° 0 mm 3 m/s 756 mmHg 91%

    24 Août, Vendredi

    Heure Température Précipitation Vent Pression Humidité
    00:00 +17°C° 0 mm 3 m/s 756 mmHg 92%
    01:00 +17°C° 0 mm 3 m/s 756 mmHg 90%
    02:00 +16°C° 0 mm 3 m/s 756 mmHg 88%
    03:00 +16°C° 0 mm 3 m/s 756 mmHg 86%
    04:00 +15°C° 0 mm 4 m/s 757 mmHg 84%
    05:00 +15°C° 0 mm 4 m/s 757 mmHg 82%
    06:00 +14°C° 0 mm 4 m/s 757 mmHg 80%
    07:00 +15°C° 0 mm 4 m/s 758 mmHg 72%
    08:00 +17°C° 0 mm 4 m/s 758 mmHg 64%
    09:00 +17°C° 0 mm 5 m/s 758 mmHg 56%
    10:00 +19°C° 0 mm 5 m/s 758 mmHg 53%
    11:00 +19°C° 0 mm 5 m/s 758 mmHg 50%
    12:00 +20°C° 0 mm 5 m/s 758 mmHg 47%
    13:00 +20°C° 0 mm 5 m/s 758 mmHg 47%
    14:00 +20°C° 0 mm 5 m/s 758 mmHg 48%
    15:00 +19°C° 0 mm 5 m/s 757 mmHg 48%
    16:00 +18°C° 0,1 mm 4 m/s 757 mmHg 54%
    17:00 +17°C° 0,1 mm 3 m/s 757 mmHg 60%
    18:00 +16°C° 0,1 mm 3 m/s 757 mmHg 65%
    19:00 +14°C° 0 mm 3 m/s 757 mmHg 68%
    20:00 +15°C° 0 mm 2 m/s 758 mmHg 71%
    21:00 +14°C° 0 mm 2 m/s 758 mmHg 74%
    22:00 +13°C° 0 mm 2 m/s 758 mmHg 77%
    23:00 +13°C° 0 mm 2 m/s 757 mmHg 81%
    Voir plus